�N����,����,�~����,�C��,���x,�C��,����,���ϕ���,�ő�u�ԕ���,�ő厞����,���˗�,�I�_���x,�n�����x,�ő啗���N��,DTYPE
"19/10/21","00:10",0.0,15.4,90.2,1013.8,330.8,2.0,3.1,335.9,0.00,13.8,19.0,"00:02:16",1
"19/10/21","00:20",0.0,15.3,90.4,1014.0,329.1,1.7,2.8,326.9,0.00,13.8,19.1,"00:14:08",1
"19/10/21","00:30",0.0,15.3,90.6,1013.5,326.0,1.7,2.5,329.4,0.00,13.8,19.1,"00:20:24",1
"19/10/21","00:40",0.0,15.4,90.5,1013.3,325.2,2.2,3.9,347.3,0.00,13.9,18.9,"00:39:44",1
"19/10/21","00:50",0.0,15.5,90.3,1013.0,327.9,2.0,3.6,340.7,0.00,14.0,18.9,"00:47:20",1
"19/10/21","01:00",0.0,15.5,90.3,1013.5,322.9,2.2,4.1,340.6,0.00,14.0,19.0,"00:51:52",1
"19/10/21","01:10",0.0,15.5,90.1,1013.8,319.9,2.1,3.5,345.0,0.00,13.9,18.7,"01:01:36",1
"19/10/21","01:20",0.0,15.5,90.0,1014.0,324.8,2.1,3.5,332.4,0.00,13.9,18.9,"01:18:32",1
"19/10/21","01:30",0.0,15.3,89.9,1013.5,331.2,1.5,2.5,326.6,0.00,13.7,18.9,"01:25:28",1
"19/10/21","01:40",0.0,15.1,90.4,1013.5,317.3,1.5,2.4,324.4,0.00,13.6,18.8,"01:35:28",1
"19/10/21","01:50",0.0,15.1,90.6,1013.5,329.5,1.6,2.7,336.2,0.00,13.6,18.8,"01:40:56",1
"19/10/21","02:00",0.0,15.2,90.6,1013.5,322.0,2.1,3.6,342.9,0.00,13.7,18.6,"01:52:16",1
"19/10/21","02:10",0.0,15.2,90.4,1013.5,327.2,2.2,4.4,331.5,0.00,13.7,18.8,"02:03:44",1
"19/10/21","02:20",0.0,15.3,90.5,1013.5,331.1,2.2,4.2,333.2,0.00,13.8,18.7,"02:15:44",1
"19/10/21","02:30",0.0,15.3,90.4,1013.3,337.3,2.1,4.3,341.3,0.00,13.8,18.8,"02:21:20",1
"19/10/21","02:40",0.0,15.1,90.3,1013.3,332.2,1.5,2.4,315.2,0.00,13.6,18.8,"02:33:04",1
"19/10/21","02:50",0.0,15.0,90.9,1013.3,330.0,1.5,3.5,323.1,0.00,13.6,18.7,"02:48:16",1
"19/10/21","03:00",0.0,14.9,90.7,1013.3,326.8,1.5,2.2,315.8,0.00,13.4,18.7,"02:54:00",1
"19/10/21","03:10",0.0,14.7,90.9,1013.3,319.9,1.3,1.9,323.3,0.00,13.3,18.5,"03:07:20",1
"19/10/21","03:20",0.0,14.6,91.3,1013.3,324.1,1.7,2.7,330.9,0.00,13.2,18.5,"03:12:40",1
"19/10/21","03:30",0.0,14.6,91.3,1013.0,325.4,1.6,2.6,330.9,0.00,13.2,18.5,"03:22:16",1
"19/10/21","03:40",0.0,14.6,91.5,1013.0,321.5,1.7,2.6,341.0,0.00,13.3,18.5,"03:34:56",1
"19/10/21","03:50",0.0,14.6,91.7,1012.8,322.0,1.5,2.8,332.5,0.00,13.3,18.4,"03:48:32",1
"19/10/21","04:00",0.0,14.8,91.6,1012.8,324.9,1.8,3.4,335.2,0.00,13.5,18.5,"03:51:52",1
"19/10/21","04:10",0.0,14.8,91.8,1013.0,331.0,1.6,2.8,333.8,0.00,13.5,18.6,"04:04:00",1
"19/10/21","04:20",0.0,14.9,91.8,1013.0,328.9,1.8,3.4,333.6,0.00,13.6,18.5,"04:10:32",1
"19/10/21","04:30",0.0,15.1,91.7,1012.6,327.2,1.8,3.6,322.0,0.00,13.8,18.4,"04:20:56",1
"19/10/21","04:40",0.0,15.1,91.7,1012.8,328.2,2.0,3.2,344.6,0.00,13.8,18.6,"04:37:04",1
"19/10/21","04:50",0.0,15.2,91.6,1012.6,335.6,2.1,4.1,340.7,0.00,13.9,18.4,"04:47:44",1
"19/10/21","05:00",0.0,15.3,91.6,1012.8,333.2,2.1,3.5,340.0,0.00,14.0,18.6,"04:51:52",1
"19/10/21","05:10",0.0,15.3,91.5,1012.8,328.5,2.1,4.2,336.2,0.00,14.0,18.5,"05:08:40",1
"19/10/21","05:20",0.0,15.3,91.3,1012.8,330.1,2.3,4.3,335.8,0.00,13.9,18.7,"05:11:28",1
"19/10/21","05:30",0.0,15.4,91.4,1012.8,331.7,2.2,3.5,344.2,0.00,14.0,18.5,"05:28:32",1
"19/10/21","05:40",0.0,15.4,91.1,1012.6,331.5,2.2,3.9,339.7,0.00,14.0,18.7,"05:36:40",1
"19/10/21","05:50",0.0,15.5,91.0,1012.6,331.8,2.0,3.7,339.9,0.00,14.1,18.3,"05:40:56",1
"19/10/21","06:00",0.0,15.6,90.8,1012.6,328.7,2.2,3.6,327.8,0.00,14.1,18.3,"05:56:24",1
"19/10/21","06:10",0.0,15.7,90.6,1012.6,326.5,2.5,4.4,333.6,0.00,14.2,18.5,"06:07:20",1
"19/10/21","06:20",0.0,15.7,90.4,1012.6,329.0,2.1,3.7,337.8,0.00,14.2,18.6,"06:13:36",1
"19/10/21","06:30",0.0,15.7,90.2,1012.6,329.1,2.5,4.2,317.2,0.00,14.1,18.4,"06:25:44",1
"19/10/21","06:40",0.0,15.7,90.1,1012.3,325.9,2.3,5.0,342.7,0.00,14.1,18.5,"06:30:02",1
"19/10/21","06:50",0.0,15.8,89.8,1012.6,326.8,2.7,4.9,336.6,0.00,14.2,18.4,"06:49:36",1
"19/10/21","07:00",0.0,15.9,89.6,1012.6,334.0,2.6,4.2,335.1,0.00,14.2,18.5,"06:57:04",1
"19/10/21","07:10",0.0,15.9,89.4,1012.8,334.1,2.6,4.5,336.9,0.00,14.2,18.5,"07:08:00",1
"19/10/21","07:20",0.0,15.9,89.4,1012.8,332.0,2.7,5.7,344.2,0.00,14.2,18.5,"07:18:00",1
"19/10/21","07:30",0.0,15.9,89.3,1012.8,331.1,2.6,4.8,344.3,0.00,14.2,18.4,"07:24:56",1
"19/10/21","07:40",0.0,16.0,89.3,1012.8,335.5,2.2,4.3,341.7,0.00,14.3,18.3,"07:30:40",1
"19/10/21","07:50",0.0,16.1,89.3,1013.3,329.4,1.8,2.9,332.7,0.00,14.4,18.5,"07:42:32",1
"19/10/21","08:00",0.0,16.2,89.1,1013.0,327.6,2.7,4.7,349.1,0.00,14.4,18.6,"07:50:02",1
"19/10/21","08:10",0.0,16.3,89.0,1013.0,328.7,2.8,5.8,337.3,0.00,14.5,18.4,"08:01:12",1
"19/10/21","08:20",0.0,16.3,88.9,1013.3,324.1,2.7,4.8,334.3,0.00,14.5,18.6,"08:19:44",1
"19/10/21","08:30",0.0,16.5,88.7,1013.3,323.3,2.6,4.3,337.1,0.00,14.7,18.5,"08:22:32",1
"19/10/21","08:40",0.0,16.8,88.7,1013.3,316.8,2.1,3.9,314.1,0.00,15.0,18.5,"08:35:44",1
"19/10/21","08:50",0.0,16.8,88.3,1012.8,318.0,2.1,4.3,335.4,0.00,14.9,18.5,"08:42:08",1
"19/10/21","09:00",0.0,16.9,88.3,1013.0,317.1,2.5,4.1,323.2,0.00,15.0,18.5,"08:57:36",1
"19/10/21","09:10",0.0,17.0,88.2,1012.8,312.4,1.8,3.7,328.2,0.00,15.1,18.6,"09:00:48",1
"19/10/21","09:20",0.0,17.1,88.1,1013.0,308.6,1.8,3.1,325.0,0.00,15.2,18.5,"09:12:40",1
"19/10/21","09:30",0.0,17.1,87.8,1012.8,307.5,1.8,3.6,334.3,0.01,15.1,18.7,"09:20:40",1
"19/10/21","09:40",0.0,17.2,87.8,1012.6,294.2,1.5,2.9,332.8,0.01,15.2,18.7,"09:37:36",1
"19/10/21","09:50",0.0,17.4,88.1,1012.3,290.7,1.1,2.1,307.5,0.02,15.5,18.7,"09:42:24",1
"19/10/21","10:00",0.0,17.5,88.0,1012.3,282.2,1.1,2.7,282.1,0.02,15.5,18.4,"09:58:48",1
"19/10/21","10:10",0.0,17.7,88.4,1012.3,292.4,1.1,1.7,299.6,0.02,15.8,18.8,"10:01:20",1
"19/10/21","10:20",0.0,17.7,88.0,1012.3,281.9,1.0,2.2,252.5,0.05,15.7,18.8,"10:10:02",1
"19/10/21","10:30",0.0,18.0,88.1,1012.3,299.7,1.0,1.8,314.5,0.05,16.0,18.8,"10:23:20",1
"19/10/21","10:40",0.0,18.3,87.7,1012.1,283.2,1.1,1.9,291.2,0.08,16.3,18.7,"10:31:44",1
"19/10/21","10:50",0.0,18.6,87.4,1011.9,280.3,1.0,2.4,326.2,0.08,16.5,18.8,"10:42:00",1
"19/10/21","11:00",0.0,19.0,86.9,1012.3,292.1,1.1,2.2,340.5,0.10,16.8,19.0,"10:59:44",1
"19/10/21","11:10",0.0,18.8,86.6,1012.3,274.4,1.2,2.2,238.4,0.10,16.6,19.0,"11:03:36",1
"19/10/21","11:20",0.0,19.5,85.8,1012.1,296.8,1.0,1.8,288.7,0.11,17.1,19.1,"11:10:40",1
"19/10/21","11:30",0.0,19.5,85.6,1011.9,290.0,1.1,1.6,308.2,0.11,17.1,19.2,"11:21:44",1
"19/10/21","11:40",0.0,20.2,84.5,1011.6,272.0,1.1,1.7,231.4,0.13,17.5,19.2,"11:35:28",1
"19/10/21","11:50",0.0,20.6,84.1,1011.4,276.2,0.8,1.6,298.8,0.13,17.9,19.4,"11:41:52",1
"19/10/21","12:00",0.0,21.0,82.0,1010.9,271.3,1.1,1.7,242.5,0.11,17.9,19.4,"11:53:36",1
"19/10/21","12:10",0.0,20.9,80.9,1010.9,253.2,0.8,2.2,312.7,0.09,17.5,19.7,"12:00:48",1
"19/10/21","12:20",0.0,21.2,80.8,1010.4,322.2,0.7,1.9,322.7,0.08,17.8,19.6,"12:12:32",1
"19/10/21","12:30",0.0,21.2,79.2,1010.2,1.1,0.7,2.2,119.3,0.08,17.5,19.5,"12:25:12",1
"19/10/21","12:40",0.0,21.4,77.5,1010.0,38.3,0.5,1.2,108.1,0.08,17.3,19.8,"12:36:32",1
"19/10/21","12:50",0.0,21.7,76.5,1010.0,286.7,0.3,0.9,310.4,0.09,17.4,19.7,"12:42:40",1
"19/10/21","13:00",0.0,21.6,75.2,1010.0,14.4,0.7,2.1,158.5,0.08,17.1,19.7,"12:58:08",1
"19/10/21","13:10",0.0,21.7,74.3,1009.5,13.0,0.8,2.5,99.8,0.07,17.0,19.7,"13:04:24",1
"19/10/21","13:20",0.0,21.4,74.0,1009.7,348.9,0.6,3.1,0.6,0.07,16.6,19.9,"13:17:20",1
"19/10/21","13:30",0.0,21.6,73.8,1009.3,353.3,0.6,1.2,18.9,0.06,16.8,19.9,"13:22:00",1
"19/10/21","13:40",0.0,21.5,74.0,1009.3,313.8,0.5,1.0,309.0,0.05,16.7,20.0,"13:32:48",1
"19/10/21","13:50",0.0,21.2,74.3,1009.3,346.6,0.7,2.0,29.2,0.05,16.5,19.9,"13:49:52",1
"19/10/21","14:00",0.0,21.3,73.1,1009.7,98.4,0.8,2.8,214.2,0.05,16.3,19.9,"13:59:28",1
"19/10/21","14:10",0.0,21.4,73.2,1009.5,78.5,0.6,2.7,119.2,0.05,16.4,20.0,"14:01:36",1
"19/10/21","14:20",0.0,21.2,73.8,1009.3,67.2,0.6,2.1,24.8,0.04,16.4,20.0,"14:16:08",1
"19/10/21","14:30",0.0,21.0,73.9,1009.3,140.7,0.5,1.6,130.4,0.03,16.2,20.0,"14:28:08",1
"19/10/21","14:40",0.0,21.1,74.4,1009.3,307.1,0.6,1.3,238.4,0.03,16.4,20.0,"14:36:24",1
"19/10/21","14:50",0.0,20.9,74.8,1009.0,293.3,0.7,2.0,130.0,0.02,16.3,20.1,"14:46:24",1
"19/10/21","15:00",0.0,20.9,75.7,1008.8,332.7,0.8,1.6,335.3,0.02,16.5,20.2,"14:53:52",1
"19/10/21","15:10",0.0,20.6,78.1,1008.6,332.3,1.1,1.4,323.5,0.01,16.7,20.0,"15:01:20",1
"19/10/21","15:20",0.0,20.1,78.9,1008.6,332.6,1.0,2.5,343.1,0.00,16.4,20.1,"15:16:56",1
"19/10/21","15:30",0.0,20.2,77.9,1008.6,15.2,0.8,2.4,206.4,0.00,16.3,20.1,"15:29:04",1
"19/10/21","15:40",0.0,20.6,75.2,1008.6,23.4,0.7,1.7,137.4,0.00,16.1,20.2,"15:33:04",1
"19/10/21","15:50",0.0,20.8,74.0,1008.8,214.2,0.6,2.7,85.2,0.00,16.0,19.9,"15:42:00",1
"19/10/21","16:00",0.0,20.6,74.0,1008.6,152.9,0.6,1.7,100.6,0.00,15.8,20.0,"15:51:20",1
"19/10/21","16:10",0.0,20.7,73.7,1009.0,138.8,0.8,2.6,106.4,0.00,15.9,19.7,"16:02:08",1
"19/10/21","16:20",0.0,20.6,74.3,1009.3,149.0,1.0,2.8,120.4,0.00,15.9,19.8,"16:19:04",1
"19/10/21","16:30",0.0,20.7,74.5,1009.0,145.1,1.0,2.4,166.0,0.00,16.0,20.0,"16:23:20",1
"19/10/21","16:40",0.0,20.5,75.6,1009.3,134.3,0.7,2.1,101.9,0.00,16.1,19.7,"16:36:40",1
"19/10/21","16:50",0.0,20.1,77.7,1009.3,134.5,0.7,1.8,163.3,0.00,16.1,19.9,"16:42:40",1
"19/10/21","17:00",0.0,19.8,79.6,1009.3,169.1,0.5,1.2,126.0,0.00,16.2,19.8,"16:50:40",1
"19/10/21","17:10",0.2,19.6,81.2,1009.3,279.0,1.2,2.1,172.5,0.00,16.3,19.8,"17:00:48",1
"19/10/21","17:20",0.0,19.2,83.1,1009.5,308.3,1.5,2.6,334.6,0.00,16.3,19.7,"17:15:36",1
"19/10/21","17:30",0.0,18.9,85.1,1009.0,289.4,1.0,1.7,310.1,0.00,16.4,19.8,"17:21:12",1
"19/10/21","17:40",0.0,18.7,86.6,1009.3,328.6,1.5,3.2,332.1,0.00,16.5,19.7,"17:35:28",1
"19/10/21","17:50",0.0,18.4,87.8,1009.3,308.7,1.6,2.9,327.8,0.00,16.4,19.8,"17:41:44",1
"19/10/21","18:00",0.0,18.3,88.8,1009.5,312.6,1.2,2.1,335.5,0.00,16.5,19.7,"17:50:08",1
"19/10/21","18:10",0.2,18.2,89.5,1009.5,95.2,0.5,1.4,312.0,0.00,16.5,19.8,"18:00:32",1
"19/10/21","18:20",0.2,18.0,90.1,1009.5,288.0,1.1,2.4,333.7,0.00,16.4,19.6,"18:14:08",1
"19/10/21","18:30",0.0,17.8,90.7,1009.3,314.9,1.1,1.6,330.1,0.00,16.3,19.5,"18:28:08",1
"19/10/21","18:40",0.2,17.8,91.2,1009.5,326.7,1.1,2.1,335.9,0.00,16.4,19.7,"18:35:44",1
"19/10/21","18:50",0.0,17.7,91.8,1009.5,253.4,1.0,1.8,245.0,0.00,16.4,19.7,"18:47:52",1
"19/10/21","19:00",0.2,17.7,92.0,1010.0,315.6,1.1,2.7,344.1,0.00,16.4,19.7,"18:59:12",1
"19/10/21","19:10",2.0,17.5,92.3,1009.7,332.9,1.5,2.6,334.2,0.00,16.3,19.7,"19:02:40",1
"19/10/21","19:20",0.6,17.4,92.9,1010.0,275.1,1.1,1.9,257.8,0.00,16.3,19.6,"19:12:24",1
"19/10/21","19:30",1.4,17.4,93.0,1009.7,266.5,1.6,3.2,324.7,0.00,16.3,19.5,"19:20:48",1
"19/10/21","19:40",0.2,17.3,93.2,1010.0,337.1,1.7,2.8,20.6,0.00,16.2,19.5,"19:33:44",1
"19/10/21","19:50",0.4,17.2,93.7,1010.2,289.4,1.0,1.9,328.0,0.00,16.2,19.5,"19:41:42",1
"19/10/21","20:00",0.4,17.2,93.8,1010.0,316.8,0.6,1.2,330.0,0.00,16.2,19.4,"19:55:20",1
"19/10/21","20:10",0.4,17.2,94.0,1009.5,271.8,0.6,1.1,310.8,0.00,16.3,19.3,"20:02:32",1
"19/10/21","20:20",0.2,17.1,94.3,1009.0,293.1,0.8,1.2,334.5,0.00,16.2,19.3,"20:11:12",1
"19/10/21","20:30",0.4,17.1,94.4,1009.5,307.1,0.8,1.9,340.6,0.00,16.2,19.3,"20:23:04",1
"19/10/21","20:40",0.4,17.1,94.6,1009.3,283.6,0.7,1.3,310.5,0.00,16.3,19.2,"20:31:44",1
"19/10/21","20:50",0.4,17.1,94.6,1009.7,347.6,0.7,1.6,339.7,0.00,16.3,19.4,"20:43:36",1
"19/10/21","21:00",0.4,17.1,94.9,1009.7,290.7,0.8,1.8,318.0,0.00,16.3,19.5,"20:53:20",1
"19/10/21","21:10",0.6,17.2,95.0,1010.0,305.6,1.0,1.6,334.7,0.00,16.4,19.1,"21:05:28",1
"19/10/21","21:20",0.2,17.2,95.2,1009.7,282.3,0.6,1.3,313.0,0.00,16.5,19.1,"21:16:08",1
"19/10/21","21:30",0.4,17.2,95.4,1010.0,246.4,0.7,1.2,236.5,0.00,16.5,19.3,"21:20:32",1
"19/10/21","21:40",0.4,17.3,95.2,1009.5,259.9,0.7,1.7,329.9,0.00,16.6,19.2,"21:37:36",1
"19/10/21","21:50",0.4,17.3,95.1,1009.3,346.2,1.0,3.1,353.1,0.00,16.5,19.2,"21:48:56",1
"19/10/21","22:00",0.6,17.4,94.7,1009.0,350.2,1.3,3.6,5.2,0.00,16.6,19.0,"21:53:20",1
"19/10/21","22:10",0.4,17.5,94.6,1009.3,8.1,1.5,3.3,347.3,0.00,16.7,19.2,"22:00:32",1
"19/10/21","22:20",0.2,17.5,94.3,1008.8,20.1,1.2,3.4,123.8,0.00,16.6,19.2,"22:18:16",1
"19/10/21","22:30",0.6,17.5,94.2,1008.8,348.0,1.3,2.6,350.9,0.00,16.6,19.0,"22:27:36",1
"19/10/21","22:40",0.2,17.6,94.1,1008.8,7.9,1.3,3.3,21.2,0.00,16.7,19.1,"22:36:56",1
"19/10/21","22:50",0.4,17.6,94.0,1008.8,24.5,1.3,4.5,40.1,0.00,16.7,19.2,"22:48:08",1
"19/10/21","23:00",0.4,17.6,93.7,1008.1,23.7,1.2,2.8,55.3,0.00,16.6,19.1,"22:53:04",1
"19/10/21","23:10",0.2,17.5,93.6,1008.1,342.7,1.0,2.6,357.2,0.00,16.5,19.1,"23:02:00",1
"19/10/21","23:20",0.0,17.5,93.5,1008.6,11.1,1.2,3.5,349.5,0.00,16.5,18.9,"23:16:24",1
"19/10/21","23:30",0.0,17.5,93.1,1007.8,23.0,1.2,2.7,36.4,0.00,16.4,19.1,"23:25:12",1
"19/10/21","23:40",0.0,17.5,92.9,1008.3,329.8,1.1,3.5,335.7,0.00,16.4,18.9,"23:33:52",1
"19/10/21","23:50",0.2,17.5,92.8,1007.6,341.6,0.8,2.0,341.1,0.00,16.4,19.0,"23:48:40",1
"19/10/21","24:00",0.0,17.4,92.8,1007.8,341.5,1.1,2.4,318.5,0.00,16.3,19.1,"23:59:36",1
